Location: Unspecified
(0.0000°N, 0.0000°E)
Time: 11:42:50
(UTC+00:00)

ISS - Pass Details

Date: 17 June 2021
Orbit: 417 x 422 km, 51.6° (Epoch: 18 June)

Event Time Altitude Azimuth Distance (km) Brightness Sun altitude
Exits shadow 05:06:38 18° 217° (SW) 1,118 -2.1 -12.4°
Maximum altitude 05:09:03 85° 303° (WNW) 422 -3.8 -11.9°
Drops below altitude 10° 05:12:23 10° 34° (NE) 1,486 0.0 -11.1°
Sets 05:14:28 0° 35° (NE) 2,346 1.1 -10.7°
